Regional Weather Roundup
Issued by NWS

Home | Current Version | Previous Version | Graphics & Text | Print | Product List | Glossary On
Versions: 1 2 3 4 5 6 7 8 9 10 11 12 13 14 15 16 17 18 19 20 21 22 23 24 25 26 27 28 29 30 31 32 33 34 35 36 37 38 39 40 41 42 43 44 45 46 47 48 49 50
000
ASUS43 KLMK 241210
RWRKY
KENTUCKY REGIONAL WEATHER ROUNDUP
NATIONAL WEATHER SERVICE LOUISVILLE KY
800 AM EDT THU APR 24 2014

NOTE "FAIR" INDICATES FEW OR NO CLOUDS BELOW 12,000 FEET
WITH NO SIGNIFICANT WEATHER AND/OR OBSTRUCTIONS TO VISIBILITY.

KYZ001>023-026-027-061>063-070>075-241300-
WESTERN AND SOUTH CENTRAL KENTUCKY

CITY           SKY/WX    TMP DP  RH WIND       PRES   REMARKS
PADUCAH        PTCLDY    50  38  63 E6        29.94R
HENDERSON      CLOUDY    48  36  61 E3        29.98R
OWENSBORO      PTSUNNY   51  37  58 SE8       29.99S
HOPKINSVILLE   PTSUNNY   47  37  67 E3        29.98R
BOWLING GREEN  PTSUNNY   45  38  76 CALM      30.00S
GLASGOW        PTSUNNY   47  37  70 E3        30.00S
$$

KYZ024-025-028>034-038-045-046-053-241300-
NORTH CENTRAL KENTUCKY

CITY           SKY/WX    TMP DP  RH WIND       PRES   REMARKS
LOUISVILLE/SDF CLOUDY    52  35  52 E10       30.04R
LOUISVILLE/LOU PTSUNNY   54  34  46 E8        30.05R
FORT KNOX      CLOUDY    49  35  58 E8        30.02R
$$

KYZ035>037-039>044-047>052-055>060-089>105-241300-
NORTHEAST KENTUCKY

CITY           SKY/WX    TMP DP  RH WIND       PRES   REMARKS
LEXINGTON      PTSUNNY   49  34  56 E13       30.06R
COVINGTON      CLOUDY    48  33  56 E14       30.10R
FRANKFORT      PTSUNNY   47  35  63 E9        30.05R
$$

KYZ054-064>069-076>088-106>120-241300-
SOUTHEAST KENTUCKY

CITY           SKY/WX    TMP DP  RH WIND       PRES   REMARKS
JACKSON        PTSUNNY   46  32  58 VRB3      30.08R
LONDON         CLOUDY    49  34  56 NE3       30.05R
SOMERSET       PTSUNNY   46  32  57 E5        30.06R
MIDDLESBORO    MOSUNNY   38  35  89 CALM      30.07S
MONTICELLO     PTSUNNY   49  39  68 CALM      30.05R
$$




USA.gov is the U.S. government's official web portal to all federal, state and local government web resources and services.